Location: Burera
(21.3780°N, 81.9534°E)
Time: 11:43:53
(UTC+00:00)

Cosmos 1844 Rocket - Pass Details

Date: 13 August 2020
Orbit: 824 x 844 km, 71.0° (Epoch: 21 September)

Event Time Altitude Azimuth Distance (km) Brightness Sun altitude
Exits shadow 21:28:50 35° 19° (NNE) 1,303 3.9 -34.8°
Drops below altitude 10° 21:31:57 10° 18° (NNE) 2,422 5.6 -34.2°
Sets 21:34:22 0° 18° (NNE) 3,356 6.5 -33.7°
